Other Surface Observations
Issued by NWS Upton, NY

Current Version | Previous Version | Text Only | Print | Product List | Glossary Off
Versions: 1 2 3 4 5 6 7 8 9 10 11 12 13 14 15 16 17 18 19 20 21 22 23 24 25 26 27 28 29 30 31 32 33 34 35 36 37 38 39 40 41 42 43 44 45 46 47 48 49 50
739 SXUS51 KOKX 300057 OSOOKX NEW YORK CITY METROPOLITAN AREA WEATHER ROUNDUP National Weather Service New York NY 900 PM EDT WED MAR 29 2017 CITY SKY/WX TMP DP RH WIND PRES REMARKS Central Park CLEAR 50 23 34 NW6 30.19R LaGuardia APRT CLEAR 52 24 33 N17G23 30.17R Kennedy INTL CLEAR 49 27 42 N10 30.18R Newark Liberty CLEAR 50 22 33 N17G31 30.18R Teterboro APRT CLEAR 49 25 39 NW10G20 30.18R Wall St Helipt CLEAR 52 25 35 VRB6 30.18R >>>>>>>>>>>>>>>>>>>>>>>>>>>>>>>>> KEY <<<<<<<<<<<<<<<<<<<<<<<<<<<<<<< > SKY/WX - SKY CONDITION/PRESENT : R : WCI - WIND CHILL INDEX < > WEATHER : E : VSB - VISIBILITY IN MILES < > TMP - TEMPERATURE IN DEG F : M : HX - HEAT INDEX < > DP - DEW POINT TEMPERATURE : A : TC - TEMPERATURE IN < > RH - RELATIVE HUMIDITY : R : CELSIUS < > WIND - DIRECTION/SPEED (MPH) : K : VRB - VARIABLE WIND DIR < > PRES - PRESSURE (IN HG) : S : < >>>>>>>>>>>>>>>>>>>>>>>>>>>>>>>>> KEY <<<<<<<<<<<<<<<<<<<<<<<<<<<<<<<

USA.gov is the U.S. government's official web portal to all federal, state and local government web resources and services.